STARLINK-35076 (65457 NORAD) Tracking and Keplerian Element Data

This shows tracking and keplerian element data for the satellite.

Feedback or suggestion? Click here.




ElementValue
Catalog65457
NameSTARLINK-35076
Epoch Orbit1767
Epoch Day354.12951724
Epoch Year2025
RAAN205.934
Inclination97.6032
Eccentricity0.0002054
Argument of Perigee92.286
Mean Anonmoly267.8602
Mean Motion15.0567721
Decay Rate7.796E-05
L11 65457U 25194Z 25354.12951724 .00007796 00000+0 54353-3 0 9999
L22 65457 97.6032 205.9340 0002054 92.2860 267.8602 15.05677210 17673



Live tracking and technical data element details for STARLINK-35076 (NORAD 65457). STARLINK-35076 can be tracked NOW for your location showing map with azimuth and elevation plus other details from your city location.







IsCatalogInMostPopularTable: catalog: 65457, numindb: 2
Update: records affected: 1



GetName: 65457 STARLINK-35076

Hit Count: updated at: Sat, 07 Feb 2026 08:18:46 GMT